Soldotna, AK

10:19 AM AKDT on April 28, 2017 (GMT -0800)
Soldotna

Weather History for PASX - May, 2013

Change the Weather History Date:

Saturday, May 18, 2013

  Actual Average Record
Temperature  
Mean Temperature 34 °F -  
Max Temperature 39 °F 52 °F 71 °F (2002)
Min Temperature 28 °F 36 °F 24 °F (1956)
Degree Days  
Heating Degree Days 30    
Moisture  
Dew Point 20 °F    
Average Humidity 59    
Maximum Humidity 87    
Minimum Humidity 33    
Precipitation  
Precipitation 0.00 in - - ()
Sea Level Pressure  
Sea Level Pressure 29.82 in    
Wind  
Wind Speed 6 mph (NE)    
Max Wind Speed 14 mph    
Max Gust Speed 18 mph    
Visibility 10 miles    
Events      
Averages and records for this station are not official NWS values.
T = Trace of Precipitation, MM = Missing Value Source: NWS Daily Summary

Daily Weather History Graph

Daily Weather History Graph

Search for Another Location

Airport or City:

Trip Planner

Search our weather history database for the weather conditions in past years. The results will help you decide how hot, cold, wet, or windy it might be!

Date:

Astronomy

May. 18, 2013 Rise Set
Actual Time 5:14 AM AKDT 10:48 PM AKDT
Civil Twilight 4:05 AM AKDT 11:58 PM AKDT
Nautical Twilight 2:32 AM AKDT 1:28 AM AKDT
Astronomical Twilight Sun does not set Sun does not set
Moon 2:12 PM AKDT (5/18) 3:07 AM AKDT (5/18)
Length of Visible Light 19h 53m
Length of Day
17h 33m
First Quarter, 56% of the Moon is Illuminated
May 18
First Quarter
May 24
Full
May 31
Last Quarter
Jun 8
New
Jun 16
First Quarter

Hourly Weather History & Observations

Time (AKDT) Temp. Windchill Dew Point Humidity Pressure Visibility Wind Dir Wind Speed Gust Speed Precip Events Conditions
12:16 AM 33.8 °F 28.6 °F 30.2 °F 87% 29.53 in 5.0 mi East 5.8 mph - N/A   Overcast
12:36 AM 33.8 °F 26.4 °F 30.2 °F 87% 29.54 in 8.0 mi East 9.2 mph - N/A   Overcast
12:56 AM 33.8 °F 27.7 °F 30.2 °F 87% 29.54 in 10.0 mi East 6.9 mph - N/A   Overcast
1:16 AM 33.8 °F 26.4 °F 28.4 °F 81% 29.55 in 10.0 mi East 9.2 mph - N/A   Overcast
1:36 AM 32.0 °F 23.0 °F 28.4 °F 87% 29.55 in 10.0 mi East 11.5 mph - N/A   Overcast
1:56 AM 32.0 °F 24.8 °F 28.4 °F 87% 29.57 in 10.0 mi ENE 8.1 mph - N/A   Overcast
2:16 AM 32.0 °F 25.6 °F 28.4 °F 87% 29.57 in 10.0 mi ENE 6.9 mph - N/A   Overcast
2:36 AM 32.0 °F 24.8 °F 26.6 °F 80% 29.58 in 10.0 mi ENE 8.1 mph - N/A   Overcast
2:56 AM 30.2 °F 22.6 °F 26.6 °F 86% 29.59 in 10.0 mi East 8.1 mph - N/A   Overcast
3:16 AM 30.2 °F 24.3 °F 26.6 °F 86% 29.60 in 10.0 mi East 5.8 mph - N/A   Overcast
3:36 AM 30.2 °F 21.9 °F 26.6 °F 86% 29.60 in 10.0 mi East 9.2 mph - N/A   Overcast
3:56 AM 30.2 °F 22.6 °F 26.6 °F 86% 29.61 in 10.0 mi East 8.1 mph - N/A   Overcast
4:16 AM 30.2 °F 23.4 °F 26.6 °F 86% 29.61 in 10.0 mi East 6.9 mph - N/A   Overcast
4:36 AM 30.2 °F 23.4 °F 24.8 °F 80% 29.62 in 10.0 mi East 6.9 mph - N/A   Overcast
4:56 AM 30.2 °F 22.6 °F 26.6 °F 86% 29.63 in 10.0 mi East 8.1 mph - N/A   Overcast
5:16 AM 30.2 °F 25.4 °F 24.8 °F 80% 29.63 in 10.0 mi East 4.6 mph - N/A   Overcast
5:36 AM 30.2 °F 25.4 °F 24.8 °F 80% 29.65 in 10.0 mi ENE 4.6 mph - N/A   Overcast
5:56 AM 30.2 °F 26.7 °F 24.8 °F 80% 29.65 in 10.0 mi East 3.5 mph - N/A   Overcast
6:16 AM 30.2 °F - 24.8 °F 80% 29.66 in 10.0 mi Calm Calm - N/A   Overcast
6:36 AM 30.2 °F - 24.8 °F 80% 29.67 in 10.0 mi Calm Calm - N/A   Overcast
6:56 AM 30.2 °F - 24.8 °F 80% 29.68 in 10.0 mi Calm Calm - N/A   Overcast
7:16 AM 30.2 °F 26.7 °F 24.8 °F 80% 29.68 in 10.0 mi ESE 3.5 mph - N/A   Overcast
7:36 AM 30.2 °F 26.7 °F 24.8 °F 80% 29.70 in 10.0 mi ENE 3.5 mph - N/A   Overcast
7:56 AM 30.2 °F - 23.0 °F 75% 29.71 in 10.0 mi Calm Calm - N/A   Overcast
8:16 AM 30.2 °F 25.4 °F 21.2 °F 69% 29.71 in 10.0 mi East 4.6 mph - N/A   Overcast
8:36 AM 30.2 °F 22.6 °F 21.2 °F 69% 29.72 in 10.0 mi East 8.1 mph - N/A   Overcast
8:56 AM 30.2 °F 21.9 °F 23.0 °F 75% 29.73 in 10.0 mi East 9.2 mph - N/A   Overcast
9:16 AM 30.2 °F 22.6 °F 21.2 °F 69% 29.74 in 10.0 mi East 8.1 mph - N/A   Overcast
9:36 AM 30.2 °F 21.3 °F 21.2 °F 69% 29.75 in 10.0 mi East 10.4 mph - N/A   Overcast
9:56 AM 30.2 °F 22.6 °F 23.0 °F 75% 29.76 in 10.0 mi East 8.1 mph - N/A   Overcast
10:16 AM 30.2 °F 21.9 °F 23.0 °F 75% 29.77 in 10.0 mi East 9.2 mph - N/A   Overcast
10:36 AM 32.0 °F 27.5 °F 23.0 °F 69% 29.78 in 10.0 mi ENE 4.6 mph - N/A   Overcast
10:56 AM 33.8 °F 29.6 °F 23.0 °F 65% 29.79 in 10.0 mi NE 4.6 mph - N/A   Overcast
11:16 AM 33.8 °F - 19.4 °F 56% 29.80 in 10.0 mi Calm Calm - N/A   Overcast
11:36 AM 33.8 °F 30.8 °F 17.6 °F 52% 29.80 in 10.0 mi North 3.5 mph - N/A   Overcast
11:56 AM 33.8 °F 28.6 °F 17.6 °F 52% 29.81 in 10.0 mi NW 5.8 mph - N/A   Overcast
12:16 PM 35.6 °F 29.9 °F 19.4 °F 52% 29.82 in 10.0 mi NNW 6.9 mph - N/A   Overcast
12:36 PM 35.6 °F 30.7 °F 15.8 °F 44% 29.82 in 10.0 mi NNE 5.8 mph - N/A   Overcast
12:56 PM 35.6 °F 29.9 °F 15.8 °F 44% 29.82 in 10.0 mi WSW 6.9 mph - N/A   Overcast
1:16 PM 35.6 °F 31.7 °F 15.8 °F 44% 29.84 in 10.0 mi WNW 4.6 mph - N/A   Overcast
1:36 PM 35.6 °F 32.8 °F 17.6 °F 48% 29.85 in 10.0 mi North 3.5 mph - N/A   Overcast
1:56 PM 35.6 °F 32.8 °F 17.6 °F 48% 29.85 in 10.0 mi NNE 3.5 mph - N/A   Overcast
2:16 PM 37.4 °F 32.8 °F 15.8 °F 41% 29.86 in 10.0 mi NNE 5.8 mph - N/A   Overcast
2:36 PM 37.4 °F 32.1 °F 15.8 °F 41% 29.87 in 10.0 mi NNE 6.9 mph - N/A   Overcast
2:56 PM 37.4 °F 31.4 °F 12.2 °F 36% 29.88 in 10.0 mi NNE 8.1 mph - N/A   Overcast
3:16 PM 37.4 °F 32.8 °F 14.0 °F 38% 29.89 in 10.0 mi NNW 5.8 mph - N/A   Overcast
3:36 PM 39.2 °F 35.0 °F 14.0 °F 36% 29.90 in 10.0 mi NNE 5.8 mph - N/A   Overcast
3:56 PM 39.2 °F - 15.8 °F 39% 29.91 in 10.0 mi Calm Calm - N/A   Overcast
4:16 PM 39.2 °F 37.0 °F 12.2 °F 33% 29.92 in 10.0 mi WNW 3.5 mph - N/A   Overcast
4:36 PM 39.2 °F 31.2 °F 15.8 °F 39% 29.92 in 10.0 mi West 13.8 mph 18.4 mph N/A   Overcast
4:56 PM 37.4 °F 33.8 °F 14.0 °F 38% 29.94 in 10.0 mi North 4.6 mph - N/A   Overcast
5:16 PM 39.2 °F 32.0 °F 15.8 °F 39% 29.94 in 10.0 mi WNW 11.5 mph - N/A   Overcast
5:36 PM 39.2 °F 35.9 °F 14.0 °F 36% 29.95 in 10.0 mi NNE 4.6 mph - N/A   Overcast
5:56 PM 39.2 °F 32.5 °F 12.2 °F 33% 29.97 in 10.0 mi NE 10.4 mph - N/A   Overcast
6:16 PM 39.2 °F 35.0 °F 12.2 °F 33% 29.98 in 10.0 mi North 5.8 mph - N/A   Overcast
6:36 PM 39.2 °F 34.2 °F 14.0 °F 36% 29.99 in 10.0 mi NNE 6.9 mph - N/A   Overcast
6:56 PM 39.2 °F 35.9 °F 14.0 °F 36% 30.00 in 10.0 mi NNW 4.6 mph - N/A   Overcast
7:16 PM 39.2 °F 35.9 °F 12.2 °F 33% 30.01 in 10.0 mi NNW 4.6 mph - N/A   Overcast
7:36 PM 39.2 °F 34.2 °F 12.2 °F 33% 30.02 in 10.0 mi NNE 6.9 mph - N/A   Overcast
7:56 PM 39.2 °F 33.6 °F 12.2 °F 33% 30.03 in 10.0 mi North 8.1 mph - N/A   Overcast
8:16 PM 39.2 °F 34.2 °F 12.2 °F 33% 30.05 in 10.0 mi NNE 6.9 mph - N/A   Overcast
8:36 PM 39.2 °F 34.2 °F 12.2 °F 33% 30.06 in 10.0 mi NNE 6.9 mph - N/A   Overcast
8:56 PM 39.2 °F 35.0 °F 14.0 °F 36% 30.06 in 10.0 mi NNE 5.8 mph - N/A   Overcast
9:16 PM 39.2 °F 35.9 °F 14.0 °F 36% 30.07 in 10.0 mi NNE 4.6 mph - N/A   Overcast
9:36 PM 39.2 °F 37.0 °F 12.2 °F 33% 30.08 in 10.0 mi North 3.5 mph - N/A   Overcast
9:56 PM 39.2 °F 37.0 °F 12.2 °F 33% 30.10 in 10.0 mi North 3.5 mph - N/A   Scattered Clouds
10:16 PM 37.4 °F - 12.2 °F 36% 30.11 in 10.0 mi Calm Calm - N/A   Clear
10:36 PM 37.4 °F - 14.0 °F 38% 30.12 in 10.0 mi Calm Calm - N/A   Clear
10:56 PM 33.8 °F - 15.8 °F 48% 30.14 in 10.0 mi Calm Calm - N/A   Clear
11:16 PM 32.0 °F - 15.8 °F 51% 30.15 in 10.0 mi Calm Calm - N/A   Clear
11:36 PM 30.2 °F - 15.8 °F 55% 30.17 in 10.0 mi Calm Calm - N/A   Clear
11:56 PM 28.4 °F - 17.6 °F 64% 30.17 in 10.0 mi Calm Calm - N/A   Clear